GFSWCAN_con_3kmhel_231.txt.gz
Helicity
53 41 31 39 54 46 42 33 35 36 35 26 13 -2 -8 -51 -61 -5 15 45 62 -34 84 1 32 84 67 12 81 78 70 119 169 252 322 259 257 228 239 176 211 256 228 217 176 190 157 65 14 -51 14 -14 -95 -61
55 43 37 55 54 29 41 59 35 37 45 34 14 -6 -50 -85 -42 -0 -40 4 9 114 105 109 86 45 82 -1 29 99 136 126 184 198 229 225 222 157 156 259 185 235 337 333 244 284 166 34 31 -55 -132 -72 6 -26
38 32 39 53 43 16 54 61 39 51 41 21 3 -22 -52 -53 -21 -9 -30 -38 45 123 34 91 77 119 74 129 91 122 160 184 201 268 241 205 190 220 214 179 161 167 182 220 206 158 119 57 69 71 66 -23 -19 -43
34 33 38 45 29 26 63 52 50 56 34 20 -1 -26 -37 -26 20 20 -29 4 158 77 31 29 90 66 62 67 66 96 117 150 165 194 208 220 227 155 184 177 203 236 198 180 169 118 97 48 62 58 45 21 6 -49
26 43 33 37 35 32 59 56 53 36 26 6 -18 -37 -28 7 34 10 -1 22 129 88 46 20 24 79 71 48 57 71 67 100 124 139 147 161 187 185 197 211 209 220 187 230 198 125 95 96 89 89 61 74 129 62
25 37 28 39 27 24 56 54 42 29 19 -0 -15 -33 -16 5 51 27 9 58 58 81 53 19 53 58 72 73 71 61 85 94 81 91 129 123 159 150 132 5 18 91 146 152 50 43 52 54 26 31 44 60 84 64
30 39 24 34 20 24 53 44 29 17 9 2 -29 -27 -10 26 35 26 49 55 52 73 68 33 26 22 30 43 41 64 68 67 76 86 71 75 88 134 152 -63 78 194 188 166 161 72 21 25 62 57 49 52 57 68
37 27 23 28 26 38 40 43 22 9 4 -14 -13 -17 -17 10 34 47 76 35 35 46 68 53 44 42 43 17 24 33 48 50 52 82 99 118 107 167 61 225 192 173 154 64 72 117 71 91 47 39 57 66 49 30
36 25 26 25 23 46 21 37 13 7 9 7 -6 -20 44 59 36 35 20 21 58 72 72 83 60 12 71 13 -4 -3 22 30 51 83 110 107 142 219 251 148 112 85 91 66 50 71 93 103 89 29 49 47 37 -5
36 25 22 24 29 34 19 30 11 4 6 -14 24 54 71 36 41 26 38 37 43 41 45 -18 103 -23 53 15 -19 -26 -24 36 35 54 107 110 151 123 89 56 46 44 69 80 71 36 56 106 165 99 62 28 51 -20
39 30 19 22 23 27 23 29 7 10 47 43 49 58 11 -14 23 40 29 30 38 30 -35 -25 -23 -42 33 -33 -25 -0 13 40 -43 37 66 77 100 47 13 -12 -19 -33 -45 1 66 88 94 116 145 104 79 102 116 80
32 37 23 19 24 18 32 26 11 50 66 51 32 15 7 18 22 8 17 36 28 51 18 10 17 33 48 52 -3 11 4 22 -17 80 46 63 48 -10 -27 -1 5 19 4 6 -2 7 35 78 84 103 115 131 185 200
28 30 22 18 20 22 23 14 31 13 21 33 36 31 39 27 18 24 22 30 50 22 19 32 16 30 32 24 -1 25 -21 -18 67 50 35 55 15 -25 -7 15 37 12 42 48 18 10 5 4 68 165 216 197 260 217
28 31 31 24 21 18 44 57 38 29 52 88 93 96 71 52 22 26 23 10 23 20 23 23 19 23 35 27 19 26 27 30 -29 -30 9 8 -20 3 16 -17 -26 1 58 86 102 47 32 66 106 163 121 224 249 216
26 26 18 48 47 38 43 33 18 47 69 92 94 93 76 38 24 19 6 22 33 23 22 31 36 38 35 25 32 32 16 -10 -10 8 -12 5 6 8 -0 -18 -9 -26 15 76 121 206 232 256 308 338 364 377 373 402
35 30 74 44 41 38 33 36 49 69 90 107 113 100 52 29 15 25 21 24 28 17 2 18 33 38 32 36 26 19 23 49 37 5 12 9 9 8 -1 -15 -16 -27 -17 46 81 134 221 333 375 397 375 359 344 246
69 91 42 41 36 39 38 53 67 75 83 105 101 101 80 23 6 16 14 20 9 18 28 34 15 19 39 36 37 57 60 17 17 30 44 3 -6 14 11 -2 -1 -13 -16 -11 18 84 109 134 209 352 462 348 297 226
83 98 18 38 33 44 73 77 92 100 83 98 100 71 66 36 21 9 25 21 16 28 30 29 16 1 39 37 44 39 36 53 18 13 27 13 -9 -13 -15 -5 1 -12 -9 28 50 70 98 157 180 158 127 130 187 188
46 60 24 27 36 63 82 89 107 93 53 78 84 83 76 71 57 43 19 20 28 56 56 54 55 38 36 68 44 48 48 27 38 89 55 22 8 13 -2 9 5 8 45 52 41 53 97 76 93 84 97 100 133 94
51 26 11 20 54 90 92 103 94 84 51 55 82 75 71 75 91 93 90 88 73 73 97 93 73 76 67 56 43 59 67 41 30 58 52 40 43 27 15 10 7 -9 -15 41 56 36 54 89 85 91 103 130 131 112
81 52 53 79 101 83 106 103 85 56 52 57 66 74 77 100 105 103 90 90 100 94 84 88 73 73 74 63 52 61 71 63 44 18 17 19 31 27 27 21 -0 8 22 35 33 62 78 95 41 52 89 84 100 87
74 59 76 83 89 93 82 76 81 75 64 61 60 74 80 88 88 85 72 103 103 97 92 93 99 89 92 88 81 72 86 106 62 42 53 38 10 18 25 22 23 34 34 26 25 45 65 59 55 55 56 55 71 65
83 74 68 74 103 86 69 87 89 69 55 46 78 85 75 85 87 83 91 90 90 90 87 91 94 78 80 82 72 95 97 90 86 100 94 75 33 19 34 39 28 31 41 54 52 52 71 84 75 79 86 69 54 43
105 80 96 86 88 88 98 90 89 95 105 87 77 82 80 78 79 91 96 93 93 90 98 104 97 78 80 99 97 108 135 106 102 110 160 162 126 72 61 56 63 55 48 39 41 54 68 71 62 74 79 88 91 81
86 72 92 92 101 92 83 89 104 102 99 93 97 72 64 71 77 85 90 91 101 97 92 84 90 90 75 72 85 104 116 119 122 123 154 189 160 124 125 108 120 127 110 57 48 48 55 59 65 64 62 67 68 66
83 78 70 58 94 84 81 68 78 113 97 88 69 78 80 78 75 66 59 58 69 76 81 82 70 60 73 76 85 111 130 99 84 102 137 133 160 197 210 192 146 152 166 118 66 43 43 43 50 57 61 66 77 81
67 66 71 78 80 84 108 111 96 93 92 69 60 85 70 57 48 54 60 53 65 46 43 43 53 65 63 53 50 68 78 81 72 50 60 90 108 135 185 216 227 195 173 133 98 48 53 51 47 53 64 60 60 67
51 58 46 71 94 94 61 71 67 58 63 64 74 63 50 49 55 64 62 54 68 64 58 58 64 65 69 66 64 65 50 45 48 67 70 72 99 143 200 229 255 260 190 127 125 99 49 58 58 56 57 63 64 60
65 76 78 85 77 78 66 62 78 67 70 67 61 56 60 74 79 82 70 51 50 58 59 58 55 53 57 54 62 68 71 61 46 69 95 124 150 168 219 193 207 245 248 204 166 133 78 55 53 58 56 55 61 66
52 75 69 79 70 59 65 69 63 69 84 83 64 73 91 110 99 68 71 65 56 53 43 38 36 33 39 34 35 47 47 30 15 -5 7 47 82 126 135 143 159 192 200 209 216 190 189 94 97 113 117 106 95 95
67 75 74 75 65 93 89 87 83 78 79 72 77 79 92 97 97 77 60 61 73 74 65 47 38 35 40 35 29 27 32 28 16 13 8 5 12 42 82 110 111 133 150 164 174 195 204 215 185 132 142 120 104 106
67 68 65 61 76 103 101 87 74 65 75 61 64 67 79 90 94 79 70 88 84 69 49 47 46 34 32 28 20 12 10 21 25 28 38 41 46 49 58 70 89 98 106 127 151 181 221 258 304 348 308 224 165 137
66 86 78 69 72 70 79 65 70 54 64 58 62 68 71 84 98 78 67 62 61 55 49 41 52 59 54 41 32 24 21 28 32 39 41 40 36 37 40 51 65 84 105 138 157 180 219 266 325 383 414 395 335 300

GFSWCAN_con_3kmhel_237.txt.gz
Helicity
22 23 29 29 51 45 33 36 59 52 28 49 51 34 33 36 31 39 32 -4 47 39 -16 -21 19 74 28 -2 31 32 -10 3 51 52 30 28 28 23 11 -8 4 142 95 65 91 92 43 76 21 48 30 -7 -12 8
40 41 42 47 44 38 34 30 55 47 22 61 57 35 59 44 10 26 37 -3 9 29 12 -8 35 49 35 57 24 78 77 39 29 62 95 89 70 47 42 6 30 82 171 99 108 128 126 46 149 99 62 42 29 42
40 37 52 52 43 44 38 26 58 45 37 74 50 53 49 25 28 33 27 -9 -26 -9 -63 41 174 136 164 117 127 -22 12 15 21 24 39 27 36 30 24 34 35 46 32 96 62 21 38 -6 2 4 28 28 21 26
42 47 42 45 34 34 33 34 43 36 42 68 69 30 22 36 29 11 10 -1 30 94 85 110 33 37 5 -5 74 38 46 -8 36 64 69 90 43 35 41 51 53 56 39 41 54 13 19 -24 10 31 35 33 11 20
42 39 50 45 41 37 25 31 26 28 31 60 52 23 32 18 8 -4 -12 10 24 81 99 25 -30 -13 19 52 3 62 8 17 62 71 107 105 53 60 52 38 23 57 44 70 93 43 58 9 4 19 21 24 38 31
31 36 37 30 23 18 19 26 27 19 50 40 35 21 22 13 -1 25 19 46 40 102 170 61 -16 54 123 117 71 40 51 57 116 92 68 78 53 98 82 41 35 19 31 3 35 30 42 45 58 71 83 81 65 64
36 30 23 23 15 19 28 25 17 35 26 29 20 19 12 2 23 63 68 42 25 7 58 54 41 70 43 31 56 66 101 81 86 76 82 87 63 85 75 41 31 15 17 41 56 65 62 55 53 48 52 52 57 56
30 28 20 23 22 26 25 26 15 21 12 18 3 5 -5 -18 -10 24 77 68 26 69 39 69 60 61 71 39 26 55 50 77 93 91 73 58 56 99 87 43 20 22 26 50 67 84 94 60 50 27 40 44 55 66
62 18 10 12 17 21 28 25 17 10 10 4 -10 -6 14 53 70 67 95 47 56 37 68 83 57 29 61 41 48 68 77 75 89 78 74 71 69 93 52 39 91 121 118 86 77 76 59 25 -0 -7 3 16 -6 -23
46 49 55 27 12 22 27 24 16 6 12 -0 24 68 79 46 59 32 60 45 33 68 97 80 47 -7 74 47 51 57 68 64 56 42 42 67 46 -9 20 83 107 53 60 51 28 19 20 8 13 3 -5 7 9 -11
29 20 31 36 39 17 27 21 16 14 9 47 70 79 78 35 36 43 60 51 37 43 77 32 -41 -54 112 28 62 36 41 58 7 36 9 -25 21 80 140 91 56 42 34 36 43 42 19 7 -9 -33 -50 -58 -54 8
42 35 30 20 23 25 24 26 28 22 43 59 51 21 38 52 76 69 82 37 22 22 63 30 24 37 57 37 36 36 14 30 -19 58 14 13 92 159 86 42 16 17 20 13 5 -20 -2 17 4 5 37 10 4 20
55 50 49 26 18 39 23 30 36 37 18 37 68 66 72 64 81 102 85 50 31 42 34 43 36 30 40 35 42 43 32 36 60 42 33 71 89 56 33 5 -9 -4 2 -6 -21 -28 13 24 23 54 38 65 60 26
57 53 40 7 7 30 33 60 62 44 48 81 87 110 95 111 66 37 -6 -10 40 41 32 34 35 20 31 39 33 26 29 46 28 18 29 81 49 9 9 -5 -15 -7 11 -6 -15 -8 19 5 52 91 47 74 110 75
59 62 47 29 45 30 42 69 51 42 88 106 103 105 86 31 43 42 42 17 22 50 63 46 38 46 44 58 49 41 50 38 17 44 65 43 31 17 16 4 -12 5 9 -5 -39 -28 -7 41 67 119 119 84 87 86
66 66 95 124 133 113 47 46 41 64 114 123 143 135 63 65 37 30 28 26 43 40 37 32 23 31 29 57 45 40 47 58 97 68 34 23 23 22 15 14 -6 12 4 -12 -33 -31 -41 21 90 146 167 119 145 156
67 78 108 70 67 60 7 66 84 129 123 133 148 70 45 53 46 35 32 53 50 31 16 23 24 18 48 40 41 102 89 38 37 26 25 26 29 25 15 12 6 11 19 3 -20 -28 -81 -4 21 9 62 68 81 135
72 65 62 98 63 84 59 79 111 143 150 114 81 72 49 54 44 31 41 71 57 14 -5 21 48 13 13 6 57 77 56 32 20 29 26 24 38 47 25 17 16 11 19 6 -10 -19 -12 -8 -4 -8 -3 -27 -11 24
72 64 57 48 104 94 100 92 109 158 124 81 64 57 61 56 46 55 52 55 71 88 82 24 25 -5 46 89 80 64 47 34 28 36 39 45 23 24 25 23 4 17 21 4 2 2 3 30 16 8 14 28 66 78
54 53 39 49 90 92 119 142 97 118 98 72 51 47 45 48 52 82 63 72 60 76 68 85 105 156 119 108 74 65 54 48 41 37 54 44 32 28 27 24 29 10 8 -1 -4 14 26 42 23 23 43 88 95 139
58 69 76 71 71 46 119 136 118 92 71 64 41 36 58 69 62 49 49 58 75 93 102 122 125 109 106 105 95 84 69 72 55 48 55 64 56 37 17 18 18 15 16 14 15 18 24 21 -27 -17 -13 34 86 114
61 89 91 24 54 70 111 95 123 82 64 53 57 49 49 48 45 57 71 58 85 103 125 107 107 100 69 89 107 107 106 94 70 61 65 70 80 65 42 20 30 25 20 23 20 25 36 13 -1 -0 10 10 27 52
62 60 44 25 58 102 108 64 95 97 83 67 46 66 66 62 84 65 51 75 113 109 94 97 97 88 99 93 79 79 91 94 94 93 88 88 87 99 80 51 34 43 49 29 25 21 39 37 25 25 18 17 20 28
32 56 45 69 75 129 97 101 79 61 54 35 61 64 71 78 50 51 59 60 112 68 69 84 79 85 86 78 97 96 92 83 87 84 94 112 116 119 126 77 59 62 71 68 44 39 39 56 51 51 44 35 35 40
92 69 73 100 74 90 115 90 37 42 52 40 53 77 62 39 40 49 50 70 64 79 100 98 97 98 101 96 93 91 86 86 86 81 86 89 103 111 129 128 66 69 111 108 134 110 57 56 61 56 56 53 46 45
87 62 115 92 106 104 80 43 32 26 39 48 63 98 71 53 32 26 48 59 69 80 84 85 85 85 91 95 88 84 73 64 61 73 79 75 84 105 125 133 132 99 124 139 130 140 152 79 63 64 78 67 61 55
78 95 131 143 85 56 58 66 89 75 62 48 50 53 46 43 34 58 62 72 73 86 82 78 78 87 96 86 81 69 60 55 64 62 53 61 65 70 81 99 119 124 137 145 143 136 134 152 75 61 52 51 71 97
130 136 68 45 45 48 45 47 39 45 53 66 62 63 52 71 57 55 61 77 89 76 73 74 79 79 91 92 82 76 67 55 40 30 26 26 46 64 88 82 82 115 105 123 136 132 129 115 130 65 47 50 57 57
171 124 101 65 59 33 39 37 43 72 80 72 56 59 39 63 64 64 82 89 79 75 79 83 83 63 65 67 69 69 64 63 54 48 48 47 45 51 81 108 107 100 94 121 157 139 134 120 100 101 56 53 62 60
116 67 77 29 29 23 48 92 73 65 96 104 78 51 54 58 85 117 101 86 79 82 88 87 76 61 69 59 61 59 58 57 58 52 47 44 41 29 29 58 97 106 107 108 117 158 182 173 92 79 70 68 64 71
74 74 44 32 46 63 50 54 50 47 62 83 103 59 57 61 93 98 82 79 100 97 93 98 91 78 68 56 50 45 48 45 41 46 46 38 39 42 42 35 42 73 100 117 113 113 144 175 192 194 68 66 54 62
54 33 28 35 29 35 54 47 49 49 42 30 42 34 38 34 50 59 67 73 86 97 109 104 98 89 73 63 56 60 59 43 40 39 48 44 47 50 48 51 55 62 73 88 111 121 130 133 162 181 215 76 62 57
48 35 34 37 25 23 49 51 35 30 29 33 34 35 42 39 46 67 62 77 95 92 106 111 118 91 77 62 56 53 47 45 44 46 44 45 46 47 42 49 52 58 77 83 91 112 155 173 152 190 276 342 148 77

GFSWCAN_con_3kmhel_240.txt.gz
Helicity
28 28 33 35 33 43 46 36 38 35 40 51 27 55 61 42 30 73 77 14 71 139 79 -8 -22 -51 -70 -55 -41 -2 -19 -1 75 33 61 63 15 18 11 9 10 22 53 43 11 15 42 -19 -20 -20 36 25 33 34
31 47 43 38 43 41 41 34 45 23 48 48 22 62 69 36 67 63 87 44 33 73 131 -48 -41 -13 -19 -6 -24 -9 -18 5 -7 12 78 78 27 17 44 31 46 -5 128 119 106 95 67 33 48 72 78 107 111 108
41 51 46 57 48 39 40 41 36 25 45 37 28 76 60 65 52 56 67 34 27 47 14 72 75 131 117 83 62 70 55 57 -6 10 26 18 8 21 19 14 33 43 40 98 70 47 51 -9 -13 15 24 22 49 49
32 46 46 42 51 53 33 37 34 26 33 31 32 73 69 46 24 44 78 34 30 77 97 74 23 40 39 20 98 154 262 64 28 43 44 7 -7 13 14 21 18 29 47 50 40 11 20 15 13 29 25 31 19 28
28 37 41 39 51 49 33 25 13 28 21 28 27 65 55 44 30 38 53 12 -7 60 83 59 50 63 -38 38 107 52 94 106 54 79 57 45 18 17 24 27 3 44 30 44 45 27 31 22 15 10 30 69 80 58
46 43 38 37 35 23 17 18 25 18 25 26 57 44 50 35 35 84 52 30 47 49 110 100 33 42 -4 35 52 70 66 46 118 122 89 65 35 45 57 21 21 22 17 13 20 27 37 60 74 91 103 87 88 79
56 35 29 32 30 22 21 25 28 28 12 35 26 33 23 28 55 112 59 67 35 -74 -12 23 37 32 36 83 34 62 64 86 111 111 137 103 51 60 97 47 20 15 3 14 31 45 63 68 96 130 135 120 116 119
57 64 59 24 21 23 19 26 23 20 13 23 12 24 18 15 25 48 50 -24 5 55 63 20 37 61 88 78 59 74 75 79 119 121 92 61 53 105 80 26 -13 -20 56 123 131 170 171 148 131 121 132 121 106 72
49 47 52 58 55 21 16 24 19 10 8 10 12 7 29 69 101 54 46 37 55 108 46 54 28 -28 111 62 53 75 67 77 91 120 97 64 73 108 56 9 87 99 129 165 136 116 122 118 110 106 84 80 88 29
54 47 39 31 31 52 39 19 21 9 -3 11 29 86 85 54 44 47 66 83 91 103 147 109 50 -15 78 64 64 86 83 71 81 107 79 105 50 -3 -14 32 27 134 155 98 78 59 62 54 44 33 30 37 41 44
63 60 52 46 27 34 30 39 24 20 5 68 68 72 66 31 54 62 93 107 87 105 139 117 89 46 19 13 59 102 73 57 59 72 94 31 -24 93 239 215 190 65 49 64 52 37 29 29 2 -9 -4 23 37 22
50 58 66 52 45 43 33 42 36 41 57 63 66 38 45 73 100 107 137 77 58 44 74 49 32 28 44 64 82 62 54 56 10 84 20 -37 107 142 133 117 57 61 58 35 21 12 6 -7 -31 -32 -23 18 41 32
56 56 56 50 37 32 37 39 29 28 22 42 76 74 81 74 116 145 136 72 34 35 47 50 53 51 46 39 55 54 54 44 81 62 46 105 134 76 54 28 30 27 16 -18 -7 2 3 -19 -4 35 20 -2 12 53
51 49 47 44 49 30 29 37 32 57 67 82 91 97 82 119 97 58 27 -15 20 49 69 58 44 40 35 36 46 49 46 53 45 31 58 116 113 78 30 18 -5 -2 -10 1 9 14 20 -20 7 30 57 61 57 48
45 40 90 88 78 108 48 36 54 58 90 116 97 107 105 45 44 24 22 8 37 66 73 65 41 34 29 45 66 61 52 46 51 87 107 97 53 25 29 27 17 16 16 15 23 21 25 -0 -17 24 43 54 61 89
55 42 100 90 119 128 129 72 32 64 116 137 145 124 80 75 45 44 37 23 53 72 76 58 51 47 29 56 54 52 59 51 111 104 74 64 46 40 44 42 35 25 16 7 16 12 7 -12 -25 -36 -27 -2 49 85
53 57 81 93 94 105 67 67 76 121 167 176 133 92 61 50 30 33 42 33 63 74 71 44 27 36 61 45 47 102 110 98 6 44 41 41 43 45 53 55 39 21 6 -8 -1 -2 -0 -9 6 -14 -36 -26 -15 -7
49 54 82 103 120 93 70 75 107 164 185 130 90 72 66 46 38 36 45 56 54 56 57 39 39 29 57 41 59 105 119 68 42 44 29 32 45 42 36 36 26 1 -3 -16 -12 -7 3 4 -7 -17 -20 -20 -28 -19
73 76 69 47 59 124 163 115 105 195 145 95 73 66 64 47 36 46 52 70 76 101 99 32 15 -1 19 149 153 115 85 80 60 51 40 54 56 32 31 20 6 10 8 -6 -13 -13 -16 -11 -24 -22 -28 6 31 4
62 51 15 27 67 135 137 157 97 157 133 92 67 60 53 44 36 56 73 76 87 86 74 78 72 107 110 110 120 104 74 58 52 54 57 62 46 48 50 35 1 -3 -2 11 -5 -8 -13 -17 -18 -17 -25 -2 9 44
39 60 47 84 76 101 169 127 99 106 113 75 56 34 45 39 64 91 82 68 78 91 66 101 131 89 102 101 90 69 90 99 80 66 63 73 72 75 64 49 29 -5 -6 10 18 1 5 2 -14 -12 -13 -20 13 42
62 59 60 68 80 76 100 89 126 77 79 47 31 27 29 33 49 65 79 103 94 76 156 172 126 73 26 39 96 113 120 105 99 98 100 91 89 92 104 77 56 36 24 20 25 13 3 6 8 -4 -9 -10 -15 25
33 34 74 79 125 94 110 62 80 55 111 85 65 26 38 46 83 131 114 60 102 156 126 119 116 131 137 97 74 83 94 98 101 92 91 91 88 94 99 109 89 72 59 59 64 23 12 11 22 14 -7 -6 -2 -8
18 87 111 136 113 148 100 92 78 51 71 48 33 36 34 87 139 94 58 46 128 95 68 82 58 66 80 77 98 110 103 99 100 93 82 90 97 110 134 118 68 75 85 79 79 103 36 25 20 24 27 19 16 9
100 99 141 169 93 77 69 79 50 46 68 27 15 31 84 105 76 43 12 56 74 60 77 67 85 90 98 119 84 87 81 96 94 91 85 82 90 95 109 121 80 55 82 102 110 122 132 85 24 14 21 27 29 27
118 105 112 132 79 74 60 65 78 66 45 32 29 80 104 80 40 6 59 85 67 84 81 67 89 88 118 151 131 125 91 74 78 97 81 77 86 95 105 115 117 104 102 104 108 117 120 122 135 48 22 28 29 30
113 78 78 30 49 56 63 57 67 45 23 52 48 67 42 31 8 72 96 100 91 133 130 134 128 126 122 95 93 83 72 68 80 76 57 61 69 75 82 98 115 114 127 123 123 126 123 114 116 137 50 39 50 39
28 25 29 34 56 48 57 68 41 56 45 37 49 37 43 67 87 76 60 97 118 97 105 114 126 123 121 106 88 82 75 61 59 39 37 35 72 63 55 69 84 98 90 103 118 128 117 112 101 104 122 47 47 55
17 28 44 64 73 78 81 44 38 61 85 65 54 63 83 102 78 48 72 82 94 86 82 80 87 77 79 82 88 84 82 90 99 89 86 85 73 50 26 33 49 76 103 108 125 118 129 125 116 86 83 85 50 50
35 47 122 101 97 56 63 94 66 73 110 100 83 71 52 34 56 84 77 75 78 77 84 88 85 77 80 76 85 82 81 83 95 92 79 67 51 40 37 37 35 36 62 98 129 126 118 148 181 133 76 57 47 33
74 105 89 62 82 91 64 66 59 43 54 61 79 51 65 36 78 89 75 96 129 126 105 101 107 105 91 74 71 66 78 67 62 67 54 41 39 47 47 44 42 43 41 59 98 106 114 107 136 182 193 153 57 51
68 57 72 72 37 17 -11 -7 -6 8 12 26 52 60 40 16 27 43 113 112 88 78 97 106 111 130 124 97 88 93 99 73 71 60 56 45 44 48 45 52 51 49 58 71 70 71 112 136 115 139 164 200 121 52
93 80 69 43 -5 -33 9 20 9 10 14 16 3 -3 10 35 35 78 68 89 89 83 113 162 174 134 109 99 83 58 68 65 58 54 50 57 52 48 43 50 48 43 60 57 71 84 106 137 147 155 172 224 284 92

GFSWCAN_con_3kmhel_246.txt.gz
Helicity
45 56 44 47 42 62 61 59 67 63 54 45 49 36 37 46 38 131 114 119 165 207 187 169 142 167 137 131 90 51 -42 14 32 35 31 11 18 29 24 17 45 56 59 19 44 39 69 25 121 131 120 56 15 8
53 48 51 54 58 58 67 61 58 52 42 59 37 28 45 48 11 113 130 91 132 192 258 143 146 163 126 56 22 35 30 25 53 53 62 23 16 -3 27 54 18 56 58 53 43 39 43 17 38 110 11 -12 27 33
73 56 57 53 50 56 54 45 42 39 43 57 41 41 44 29 26 125 153 116 133 132 118 137 115 109 123 132 146 123 73 77 68 95 68 35 28 25 22 7 26 -9 -41 4 74 6 -76 -35 -35 -28 25 51 23 29
61 58 53 48 49 44 42 55 57 62 66 46 24 25 24 30 48 102 166 127 150 132 169 65 -46 -54 8 55 74 167 149 13 41 120 129 138 128 85 69 4 -34 -0 -22 -3 11 -16 -46 -46 -21 29 26 52 41 43
108 96 73 69 60 50 49 44 41 39 37 22 30 29 26 15 42 82 119 129 179 191 236 94 -55 121 52 60 91 76 110 105 88 97 98 135 143 92 14 25 -3 5 6 -0 -25 -14 15 34 70 49 39 61 71 66
83 87 91 89 67 54 51 44 39 34 30 32 27 27 26 60 65 125 72 83 63 157 206 157 45 19 110 146 78 92 115 135 124 111 110 127 187 141 -58 36 34 6 -7 11 6 -16 39 11 17 82 66 54 49 40
79 74 70 57 62 73 70 49 48 39 27 32 28 35 24 31 115 165 102 93 91 90 181 136 65 6 4 27 67 76 77 96 121 130 122 114 129 161 135 156 277 95 88 67 47 12 104 90 45 23 2 11 22 8
71 68 64 52 46 46 46 53 49 27 27 27 27 30 26 23 51 89 128 55 48 95 182 172 170 66 62 17 17 66 80 125 120 133 138 132 129 192 122 113 48 41 34 45 117 138 93 51 36 25 30 20 11 8
53 54 59 72 55 52 30 36 35 50 32 27 31 23 49 89 100 66 49 58 137 147 229 275 249 125 16 6 12 43 118 108 74 100 122 135 142 174 116 60 40 60 60 79 63 45 61 31 13 -2 -7 -0 -0 10
38 44 50 67 74 79 57 44 38 33 45 29 55 73 53 54 15 21 73 118 146 201 278 243 238 252 90 56 -69 -87 -35 -13 32 59 102 113 154 149 173 170 187 155 102 58 -1 19 12 16 7 -1 -5 -5 2 -5
38 39 43 57 58 63 71 51 51 54 52 75 61 64 65 17 70 81 105 131 114 104 114 86 210 271 120 121 62 35 45 69 52 64 123 116 87 120 87 41 54 43 35 27 -7 -19 2 11 14 11 10 19 2 -11
32 32 38 49 50 53 51 62 55 64 79 99 108 67 68 81 85 110 126 89 73 51 39 49 36 102 57 86 100 65 83 82 57 81 105 97 172 177 109 70 79 55 21 21 25 18 2 -0 3 -2 -13 -14 -10 -12
27 28 34 42 55 65 73 30 29 41 79 87 98 106 98 95 131 104 118 97 76 52 51 -8 -24 10 45 57 49 34 24 48 90 121 127 133 128 116 89 67 44 21 30 20 20 15 -4 -16 -2 -12 -3 -6 -15 -11
25 16 21 42 72 77 132 54 25 71 97 116 102 94 95 93 61 84 96 77 67 48 9 -1 -9 -10 29 77 72 71 53 90 90 109 124 138 101 94 83 91 61 41 25 26 25 19 6 1 7 10 4 -3 -6 7
40 14 14 50 69 84 93 91 78 98 127 135 128 116 87 64 47 85 98 71 45 14 21 21 2 -6 -5 -0 44 95 111 106 100 117 126 131 96 73 77 59 32 26 33 33 30 27 15 11 22 22 10 2 11 16
43 37 27 34 84 101 85 83 89 105 130 153 169 138 102 95 41 70 80 50 61 52 44 39 30 43 10 85 101 107 156 159 155 178 158 135 113 105 65 42 27 28 31 26 22 17 13 7 13 22 29 15 12 18
53 66 30 29 43 71 72 82 89 120 125 126 122 148 109 98 74 59 43 62 72 87 75 67 94 39 101 97 129 155 147 115 150 202 167 105 83 75 71 51 41 45 36 19 11 8 11 16 12 14 15 19 1 3
58 32 53 96 89 83 61 62 126 187 179 171 147 116 109 98 100 87 65 83 111 102 120 118 79 159 195 153 101 113 113 79 109 128 117 91 93 99 77 56 54 60 58 46 23 11 1 -8 3 3 11 10 3 -1
36 66 94 63 44 44 61 72 142 188 140 141 164 132 129 115 129 115 121 108 119 132 76 70 113 137 144 147 95 81 70 66 76 115 127 123 106 65 51 91 107 103 85 66 45 22 9 -19 -17 -7 5 6 -11 -14
15 26 98 81 94 77 58 93 125 158 119 84 122 110 139 146 125 157 147 125 117 112 83 103 115 144 107 92 102 94 108 119 132 130 97 72 77 96 134 148 170 137 103 80 64 47 35 20 -0 7 13 7 -12 -20
53 10 6 59 124 110 103 122 165 128 101 123 120 152 156 153 123 108 104 113 130 121 121 88 105 122 130 153 164 176 162 140 121 117 95 102 98 110 136 174 160 154 120 82 70 73 81 33 17 17 16 10 -1 -15
108 60 103 84 114 126 145 176 160 133 138 117 94 91 114 121 98 94 90 78 88 132 142 175 190 202 195 175 159 144 126 133 118 115 136 117 97 107 126 134 118 110 88 76 80 71 61 58 50 26 16 16 6 -9
112 184 149 125 121 138 107 137 141 127 129 100 95 80 92 68 41 40 26 44 80 120 154 179 170 176 159 164 172 137 103 103 126 140 123 104 102 113 128 120 95 87 88 86 82 74 65 79 74 57 28 20 14 -4
127 163 149 118 130 165 151 131 112 81 99 107 91 83 90 79 68 64 15 24 80 159 192 197 207 215 194 180 153 98 87 99 121 126 99 97 112 121 135 109 86 71 61 58 71 76 71 72 81 77 69 36 22 6
161 123 146 185 196 152 107 95 60 54 14 35 48 54 47 34 46 47 58 57 91 142 141 139 148 140 118 124 131 121 104 89 97 101 79 70 76 104 121 105 72 51 69 80 89 94 100 91 80 78 80 63 54 35
162 142 162 148 147 136 122 60 58 58 76 61 27 33 81 60 28 49 54 84 119 120 104 99 107 122 109 137 171 126 91 57 86 96 54 50 69 79 84 92 88 80 72 61 67 84 94 92 88 92 83 84 85 62
196 180 116 106 111 91 83 69 22 -17 28 44 67 116 81 36 -25 5 53 53 86 114 125 107 119 141 139 157 158 135 98 74 67 63 84 89 86 55 49 54 59 51 56 54 49 50 65 82 84 90 84 79 66 70
124 74 28 -6 35 63 30 1 -73 -43 29 58 79 72 51 47 13 64 45 89 131 157 164 162 170 213 210 185 137 97 91 90 106 140 163 140 119 88 56 39 49 49 40 40 40 45 42 52 71 77 81 77 86 76
56 24 3 46 94 49 38 15 -14 39 54 47 74 68 48 17 14 32 72 103 140 166 154 153 149 170 167 147 123 95 83 78 107 102 93 103 97 81 57 45 47 45 49 51 63 46 21 31 56 57 57 63 65 64
-20 15 44 102 69 37 39 43 39 55 50 65 80 84 88 72 63 62 123 129 120 86 65 84 99 108 90 93 92 122 124 106 83 80 88 74 58 42 42 45 42 49 53 53 46 37 28 31 25 49 67 62 58 74
-24 25 59 96 76 45 45 69 152 132 109 90 100 71 50 33 71 87 63 76 77 88 88 88 94 90 95 86 80 87 81 70 77 85 79 72 61 59 56 43 42 45 53 55 46 39 42 39 41 48 71 88 101 93
46 59 111 87 63 76 113 67 80 74 68 65 71 81 69 32 -13 24 66 122 116 128 117 127 127 112 109 108 109 98 96 79 72 67 73 70 70 64 57 53 53 61 65 56 48 41 37 40 45 55 69 99 108 111
107 122 101 80 66 47 49 70 69 45 49 8 -5 -31 -28 -27 -22 29 66 87 99 93 103 101 109 92 80 90 88 91 91 74 64 72 75 68 68 68 62 54 63 76 75 63 53 48 50 37 32 57 80 104 123 120

GFSWCAN_con_3kmhel_252.txt.gz
Helicity
76 69 79 77 62 44 55 46 55 59 56 51 89 67 46 34 33 141 151 164 177 200 187 224 275 243 195 214 198 140 52 61 50 70 76 43 35 37 29 32 1 44 36 29 38 34 -16 -2 -8 -38 -33 -103 -33 149
65 79 65 53 62 58 78 79 76 73 74 79 70 43 50 44 31 79 156 133 135 157 193 199 244 247 266 203 171 169 117 30 53 81 86 79 55 40 62 60 27 9 4 15 33 28 1 28 -5 4 -52 -81 -25 99
107 88 70 73 82 82 71 63 58 57 57 38 34 34 50 40 48 98 137 156 154 154 167 173 116 68 105 87 138 81 98 75 46 54 47 43 61 110 83 87 90 7 22 6 -5 39 24 49 48 -29 -4 -26 14 47
109 110 119 94 68 69 69 63 57 52 71 72 84 65 56 37 40 58 98 106 160 145 159 74 75 106 92 118 131 151 118 106 65 75 70 101 130 124 133 126 127 94 79 92 54 62 27 -10 -8 -39 21 4 16 40
95 95 109 119 116 103 79 64 56 57 51 46 41 24 13 14 30 76 90 92 154 152 151 120 90 85 56 143 221 210 223 176 118 76 87 136 132 121 127 108 120 129 92 99 59 43 9 -16 -20 -2 -0 44 27 17
75 87 88 93 103 99 93 92 82 66 51 41 37 27 28 30 90 132 87 92 124 189 159 138 82 100 81 79 61 102 187 183 146 108 110 148 190 164 95 98 128 148 158 147 79 62 40 20 2 15 46 46 25 8
49 54 62 72 84 83 80 78 79 90 88 56 37 34 33 36 138 132 106 66 70 94 136 82 58 42 37 58 61 80 110 148 130 89 114 134 141 135 132 133 209 161 32 -18 12 24 35 51 46 64 54 15 -15 -21
64 42 44 66 72 71 72 73 67 72 76 75 55 27 34 39 60 77 95 139 113 117 135 99 70 86 73 104 125 87 117 95 88 109 107 97 92 135 137 222 149 101 65 50 58 56 52 44 40 32 17 -15 -18 -21
68 83 41 44 57 68 77 87 80 57 48 64 60 34 93 101 78 50 55 145 144 148 145 161 171 111 83 81 74 86 80 106 53 71 104 102 125 131 155 158 132 123 105 64 58 47 46 21 -3 18 12 14 -5 2
85 57 75 36 41 46 57 70 89 74 67 67 92 96 94 71 99 83 87 102 103 160 207 186 223 130 79 68 31 61 105 96 126 70 101 95 127 153 186 168 178 106 68 52 26 12 5 5 -7 -4 -1 8 14 9
85 86 64 38 37 42 45 62 68 86 79 125 130 102 77 34 53 56 117 129 151 135 118 93 121 140 41 81 77 55 91 81 95 81 110 81 92 164 165 194 121 67 52 56 9 2 12 13 6 4 4 14 16 18
72 81 63 48 31 29 37 55 52 80 102 142 121 85 76 95 144 170 180 173 148 119 121 120 106 84 50 50 55 52 86 110 91 122 106 75 87 110 132 121 97 79 68 32 17 25 26 24 20 17 16 16 20 22
56 68 58 46 29 20 25 39 53 54 71 49 120 131 138 147 192 231 202 154 164 125 79 91 99 95 58 47 62 57 94 116 120 108 123 99 110 126 141 133 98 59 50 41 39 34 28 25 28 20 15 21 19 25
54 48 44 53 32 16 24 27 12 41 105 148 172 239 197 220 157 181 208 119 103 127 112 99 101 75 67 43 32 71 44 74 147 188 128 112 91 124 136 114 99 65 47 32 24 30 31 31 28 29 34 33 33 21
52 57 42 38 36 30 13 30 60 81 103 168 168 236 221 217 179 131 58 51 84 94 92 82 58 67 78 94 90 118 118 143 161 141 92 72 93 115 110 102 76 50 61 54 35 26 20 24 20 18 30 35 32 34
44 45 39 47 53 27 20 70 61 101 143 197 219 270 207 166 86 86 94 104 142 118 97 79 69 85 85 118 141 127 164 168 119 94 63 69 84 95 95 100 94 122 56 46 35 45 48 37 37 48 44 34 26 21
52 46 38 68 67 68 35 81 81 147 96 188 203 230 186 164 124 62 34 49 112 81 59 75 101 67 151 135 165 178 159 116 75 51 43 21 89 67 111 91 93 66 59 62 58 59 63 41 71 99 69 54 43 29
59 50 31 30 33 30 86 91 108 132 157 167 149 135 149 122 93 67 45 86 75 78 93 70 104 132 173 175 164 151 104 109 100 93 73 46 26 70 107 102 103 73 66 70 80 98 83 85 105 94 66 35 31 37
42 47 30 27 24 33 95 109 133 133 107 87 81 101 90 81 94 78 92 83 102 97 92 111 109 133 147 181 128 102 130 124 86 59 85 110 140 145 134 118 84 72 74 90 112 127 108 93 84 82 51 26 25 44
20 26 28 36 35 31 85 127 162 152 97 43 61 68 79 81 71 83 80 103 128 117 135 196 206 211 191 131 103 117 109 87 125 159 150 190 192 172 143 98 62 67 82 100 105 112 90 80 83 67 53 39 32 38
39 55 47 32 10 54 106 192 215 130 99 67 31 29 36 52 64 71 72 108 128 134 144 173 167 141 123 143 155 118 99 149 177 211 170 157 151 154 138 108 89 97 96 86 76 76 70 54 52 51 50 54 49 47
66 33 73 33 47 59 103 182 229 219 132 73 45 13 38 59 59 66 53 89 139 123 148 136 135 152 181 177 169 189 181 189 199 223 207 179 167 141 124 93 78 81 78 66 61 48 47 47 50 50 49 51 52 47
34 33 41 66 92 113 149 125 178 162 102 34 -4 -8 4 22 34 71 79 103 115 120 136 173 149 123 132 139 169 207 208 223 176 158 143 140 142 133 118 92 78 63 55 48 46 40 40 42 41 45 50 51 45 49
35 41 63 103 129 163 187 166 141 119 66 58 26 35 23 23 64 86 91 83 112 139 135 128 144 132 130 137 163 174 163 128 147 159 141 143 136 112 92 81 69 55 37 31 37 42 44 44 38 41 44 46 52 44
62 61 118 162 166 226 242 215 159 131 113 87 128 97 55 40 75 87 58 53 186 156 105 108 158 158 142 137 146 122 99 121 126 129 118 128 113 110 99 67 46 35 39 29 29 31 38 36 34 35 43 46 46 56
96 77 130 155 229 209 167 166 129 83 84 62 -0 23 76 88 85 43 40 46 85 71 67 100 128 139 122 99 106 93 86 113 163 152 116 93 71 60 47 42 33 22 27 20 27 32 29 24 27 32 43 52 55 43
137 169 138 136 143 175 200 175 123 99 40 10 36 76 57 56 35 41 65 75 58 41 -0 38 61 75 76 71 93 134 163 183 159 121 122 120 105 76 47 22 3 1 18 23 23 30 38 42 44 41 43 58 63 45
81 102 188 209 200 215 177 165 105 64 45 73 55 36 27 15 13 -22 2 12 31 68 85 101 91 73 84 110 144 189 206 188 186 170 144 118 95 79 62 44 28 25 24 18 15 20 27 36 46 49 49 51 63 67
137 94 123 187 183 172 159 117 76 60 73 87 95 65 -28 1 -6 41 -0 4 29 60 80 90 107 139 177 194 192 171 154 124 114 78 40 25 38 25 56 40 28 31 30 24 19 19 21 33 34 35 33 44 49 51
192 184 192 201 176 162 147 107 61 32 11 25 37 49 19 50 39 67 64 60 49 41 49 55 70 104 111 135 134 139 120 83 58 57 30 13 14 46 44 34 33 33 33 32 30 34 33 42 24 22 23 22 24 38
189 215 174 148 114 78 49 22 37 29 23 12 81 77 54 46 51 59 71 74 111 126 131 109 105 95 116 114 102 76 60 72 86 92 90 82 61 46 38 36 31 33 35 34 33 36 33 26 20 22 31 43 53 55
189 153 132 48 67 98 75 36 34 15 7 47 103 128 92 55 22 33 88 185 186 151 78 97 89 57 78 103 87 70 64 84 68 67 73 70 66 59 52 45 45 48 50 50 48 37 30 25 27 33 42 52 53 55
88 98 118 103 80 40 41 51 6 21 108 145 115 71 61 51 18 77 110 95 95 113 82 100 136 130 125 91 82 94 99 86 75 75 77 81 77 72 61 55 53 56 67 65 59 44 49 48 42 47 53 58 61 58

GFSWCAN_con_3kmhel_255.txt.gz
Helicity
54 49 43 47 55 45 46 83 80 79 69 79 68 87 97 89 50 114 122 134 164 145 140 196 166 189 172 162 188 154 105 127 111 117 87 62 63 61 48 65 28 19 19 30 18 23 23 31 11 -20 10 -14 -11 4
40 40 51 43 49 42 45 63 70 87 90 104 125 118 85 71 64 122 141 120 117 149 144 138 152 147 114 107 175 165 143 151 112 107 91 63 73 78 70 61 26 9 12 20 16 10 20 104 -1 -3 -10 -6 54 2
76 85 71 47 56 67 58 54 65 69 79 77 77 73 74 61 62 91 141 155 153 140 97 126 66 58 102 123 135 137 126 94 82 78 86 80 71 85 84 71 47 9 28 33 24 16 15 57 43 19 14 17 -9 -3
75 87 93 103 84 59 50 48 64 72 75 77 95 90 89 107 90 109 148 133 140 145 130 65 24 59 73 141 188 145 139 117 81 97 132 118 106 77 125 97 67 100 38 26 -7 14 8 -16 23 0 -4 -4 15 22
71 72 79 91 100 102 93 80 65 60 55 51 64 75 74 66 53 84 116 104 107 141 132 61 49 135 74 171 148 147 138 119 144 155 163 144 102 84 111 106 152 138 118 86 48 39 41 63 60 33 12 11 29 22
50 64 72 73 82 89 88 86 81 77 74 58 55 56 61 64 121 138 98 89 116 145 144 107 60 80 63 55 90 116 85 152 178 166 141 121 134 111 95 98 168 139 138 127 95 54 46 21 14 45 37 56 52 31
44 45 52 56 65 66 73 73 69 72 76 93 75 35 44 57 127 128 119 74 50 86 135 108 52 49 60 93 122 120 128 166 174 164 155 121 102 95 147 172 150 155 145 57 10 71 63 59 13 19 43 49 37 17
72 74 43 42 53 64 68 69 72 67 75 73 61 68 41 54 88 123 124 115 79 96 92 122 84 81 89 134 156 132 163 167 168 184 157 94 44 88 131 282 172 89 70 69 143 95 70 64 48 37 25 34 45 41
78 75 66 62 40 61 70 68 86 86 70 58 80 68 102 113 100 77 43 87 125 114 165 165 131 86 104 114 123 108 132 134 127 202 162 93 57 82 183 156 99 105 124 119 96 53 74 28 32 28 11 36 42 39
85 90 80 73 47 43 46 52 66 100 91 80 107 114 109 74 92 109 126 118 109 127 173 205 222 167 130 124 110 96 84 108 119 138 132 152 155 163 176 211 165 145 147 96 71 66 51 28 14 19 25 24 27 21
77 77 94 59 63 40 35 40 60 73 106 111 133 126 93 49 70 102 138 169 196 203 164 162 168 143 86 79 84 83 101 87 108 83 108 113 136 154 71 74 135 146 100 98 77 41 24 18 22 27 30 25 26 25
69 69 90 59 59 44 30 27 47 79 100 130 132 96 81 104 141 145 223 251 216 153 155 127 99 108 96 65 100 83 99 102 96 159 118 56 10 42 61 78 94 109 108 90 59 52 33 27 24 24 23 21 18 18
42 48 74 64 58 33 21 11 31 45 64 57 107 152 162 161 237 343 409 384 203 130 97 82 81 96 78 65 85 89 102 89 127 131 147 38 74 34 44 73 101 91 78 69 55 44 50 34 33 24 23 22 18 16
54 53 55 42 42 32 24 -1 15 52 69 127 192 241 222 269 232 225 224 174 145 129 69 51 52 75 97 94 99 108 86 102 131 155 96 68 74 61 80 83 88 75 72 55 43 52 32 38 32 20 19 25 25 19
39 56 60 60 40 40 19 14 11 11 56 160 180 240 218 198 205 162 80 66 71 91 106 88 71 91 118 120 82 106 120 132 137 124 112 89 46 64 64 68 75 81 70 50 68 45 23 28 31 34 48 48 42 42
42 51 49 44 49 56 39 32 58 8 63 181 216 206 176 159 94 77 90 92 115 175 117 90 93 77 49 63 119 118 149 115 84 89 73 45 24 30 55 74 68 80 67 54 45 34 31 22 28 42 58 63 60 61
37 41 41 51 45 48 34 51 77 80 87 108 179 184 164 120 131 111 135 164 98 -16 74 120 178 163 173 208 189 131 123 76 60 63 46 47 54 41 43 65 88 82 78 59 54 60 59 66 96 94 101 92 89 78
56 37 36 38 49 37 -3 38 99 123 147 188 180 129 104 90 72 72 37 28 40 48 78 59 104 156 237 246 214 110 96 81 67 57 51 55 96 46 110 115 121 115 97 75 50 52 68 95 101 112 106 92 77 66
49 43 22 17 26 52 39 65 95 148 117 97 84 71 65 39 14 18 64 91 95 70 97 86 115 117 117 113 109 77 32 15 45 70 116 104 106 141 151 151 140 126 99 74 61 65 78 82 83 97 91 85 70 59
16 23 13 2 36 38 90 47 107 142 127 106 106 72 81 89 72 82 84 95 107 110 127 187 172 180 175 134 111 95 85 43 70 85 96 117 128 157 161 172 167 134 112 107 88 79 70 72 84 82 83 77 66 51
43 31 26 46 69 26 90 113 106 106 100 100 86 93 81 60 49 67 73 74 94 145 135 152 151 144 116 95 82 84 95 98 90 99 77 109 146 172 183 176 151 145 116 98 81 62 57 53 55 62 63 66 66 60
65 22 56 59 95 73 82 109 144 161 174 149 143 122 69 47 16 3 42 81 129 119 138 115 99 98 95 90 111 113 103 79 93 167 202 225 205 185 169 152 145 133 120 102 80 49 42 43 47 48 51 52 51 52
25 48 70 66 78 92 130 173 164 174 176 144 126 92 60 14 -15 13 44 63 63 71 107 125 106 111 126 137 131 83 81 82 124 165 206 196 174 159 170 155 146 135 107 91 69 39 34 39 39 38 43 45 41 43
49 63 52 91 99 166 173 182 178 178 178 146 87 50 28 8 23 61 76 65 49 89 76 61 95 111 146 133 132 99 80 110 148 162 154 120 115 118 125 133 131 115 90 73 54 34 28 26 23 29 34 30 33 33
74 71 89 143 147 180 173 198 180 154 134 95 71 40 14 40 72 104 65 70 68 72 52 101 79 90 97 122 107 109 118 117 123 117 82 89 136 142 127 127 114 86 78 54 32 20 18 16 16 20 26 20 17 19
117 105 146 143 170 190 171 172 137 114 110 91 58 55 86 62 64 37 59 7 5 -11 26 29 45 62 60 83 79 80 85 114 119 113 91 82 86 106 118 105 71 52 57 38 17 17 21 20 23 31 30 27 27 14
171 186 132 131 142 149 148 147 158 155 105 86 87 92 78 74 65 57 -17 -95 17 44 23 10 4 23 62 92 107 97 102 114 107 119 144 141 130 120 99 69 38 41 43 26 16 10 17 21 25 28 32 35 29 21
153 147 163 145 146 111 100 131 137 125 105 119 147 104 87 90 29 -27 -72 -46 4 -24 9 30 44 56 50 52 66 106 151 163 182 172 161 142 118 95 79 66 59 48 31 22 14 13 5 8 18 24 31 42 52 38
189 217 206 142 142 138 152 176 148 142 140 147 113 85 69 35 15 -31 -16 26 -1 20 28 32 45 57 83 106 115 103 113 119 132 98 61 41 47 29 56 51 38 33 29 21 14 13 13 15 16 20 23 35 43 47
205 249 224 206 142 101 130 85 91 117 109 111 95 68 29 17 13 29 64 41 60 66 34 48 46 47 39 53 69 105 108 90 81 69 50 34 24 59 63 45 31 35 30 28 27 30 34 30 19 20 22 19 17 23
221 227 231 234 194 159 164 119 134 128 96 20 28 51 34 -1 -5 0 52 77 76 109 122 99 75 62 67 70 77 72 57 82 84 71 68 85 90 79 64 51 42 37 39 39 36 34 31 26 26 27 29 31 33 27
232 250 235 242 189 150 132 85 80 79 73 30 22 67 56 2 -40 -79 28 92 121 130 104 113 107 80 88 87 75 82 93 105 86 79 82 91 89 79 67 56 49 47 48 47 47 42 41 38 32 32 32 39 42 41
125 154 159 132 104 78 77 96 72 7 8 -3 6 25 9 -10 -67 -6 56 60 81 105 121 137 155 155 137 110 108 113 116 98 100 105 108 102 92 78 68 64 61 61 61 62 60 51 52 47 41 47 53 54 55 54

GFSWCAN_con_3kmhel_258.txt.gz
Helicity
60 63 46 55 58 54 39 34 59 82 82 58 33 50 44 62 94 96 84 82 134 121 86 105 58 55 66 83 104 140 90 119 121 121 117 108 85 56 41 32 13 28 10 40 37 35 13 30 13 33 21 -2 6 34
62 55 56 42 37 31 29 40 42 64 70 64 63 77 87 88 82 86 97 82 73 133 104 113 58 56 44 24 64 136 113 162 125 118 118 110 87 53 38 45 41 26 35 6 39 39 2 -6 7 12 -3 -3 1 -6
86 77 62 45 46 49 59 62 66 66 64 73 93 94 98 72 68 84 95 127 157 123 48 105 83 -0 41 33 22 115 87 86 106 76 122 137 103 51 46 46 27 23 7 40 9 28 -5 15 11 -14 -4 5 5 -4
74 88 91 85 71 56 45 53 55 60 66 65 70 63 45 63 65 81 112 119 131 144 122 53 80 22 35 52 81 101 68 111 92 117 146 127 118 68 42 29 24 56 -5 20 18 8 10 23 24 34 33 10 9 10
71 73 69 79 97 100 94 83 75 74 56 48 43 59 89 109 91 74 73 98 105 130 131 61 -7 30 59 53 80 76 70 96 142 186 159 146 86 59 33 23 124 43 50 26 40 37 34 4 25 33 27 24 35 38
64 70 74 76 87 92 91 92 85 72 56 53 38 36 44 52 64 125 88 78 74 118 147 104 65 60 113 58 52 78 87 106 150 154 139 137 87 91 74 32 54 29 34 40 39 -7 -22 30 42 41 29 21 20 51
55 54 61 70 74 79 78 84 81 75 73 71 66 36 29 48 82 121 137 100 72 146 154 130 85 72 66 83 99 112 85 114 143 163 173 104 82 82 92 29 74 11 35 42 31 -6 76 69 68 56 34 30 23 32
74 81 70 55 53 61 70 72 75 73 68 73 71 57 43 34 74 89 86 81 31 80 111 179 117 102 89 110 132 132 158 142 143 171 158 123 87 143 123 31 22 44 15 24 39 74 73 68 73 32 32 30 21 35
85 77 78 64 68 39 58 62 60 80 72 59 70 70 82 88 104 76 47 103 107 97 195 201 132 122 97 112 143 118 129 145 118 147 177 121 141 195 198 20 6 16 12 42 91 75 88 70 66 45 33 43 35 29
94 93 99 91 83 49 47 52 61 67 101 70 92 108 132 105 105 95 78 120 119 126 228 206 128 137 134 130 120 132 120 116 123 74 70 105 110 217 153 58 1 11 26 62 53 50 70 75 72 58 44 31 34 27
89 88 83 89 64 67 41 43 47 62 89 93 125 139 122 48 64 116 173 214 231 249 177 120 105 94 87 132 134 111 129 112 123 106 98 100 78 39 -5 -10 -1 14 91 65 78 98 93 77 57 52 50 49 43 35
74 80 76 101 65 57 48 38 35 59 102 120 123 108 104 128 155 154 213 212 235 208 180 112 75 79 111 93 102 96 118 94 103 138 100 76 50 18 36 38 41 64 79 88 91 93 75 63 52 53 53 49 40 33
47 56 61 84 58 50 30 34 21 45 54 65 107 145 139 139 219 329 335 352 258 209 149 71 75 81 103 66 75 88 105 114 147 131 130 60 67 53 41 22 41 64 69 72 66 62 50 36 32 30 28 24 19 24
41 48 68 81 56 47 19 24 22 35 65 125 160 217 206 261 237 179 154 150 185 141 76 38 72 77 78 88 90 138 122 122 115 119 91 39 74 57 48 31 62 62 55 59 64 47 30 30 36 27 16 4 14 14
30 43 62 69 50 47 47 24 36 48 76 153 146 230 223 182 199 178 122 82 84 119 57 50 45 56 32 137 150 145 135 121 92 61 76 103 85 50 33 57 62 74 80 71 44 47 43 40 34 26 25 30 21 36
29 32 46 56 64 65 64 53 51 68 63 95 168 188 137 113 81 69 49 75 51 27 57 51 68 68 21 40 112 150 140 152 113 97 107 76 50 24 20 23 50 80 95 84 68 61 57 49 44 41 42 46 59 62
61 48 63 66 62 57 50 42 51 59 116 108 112 93 73 77 75 76 68 110 207 159 98 88 93 98 123 86 88 123 57 130 161 84 93 102 64 50 45 52 89 95 97 89 94 93 87 73 57 51 50 67 85 88
65 62 49 44 32 29 38 28 63 77 109 102 107 73 78 91 90 90 72 26 -10 11 74 80 36 89 156 123 86 127 177 148 62 8 -1 17 25 29 59 75 101 88 94 106 101 91 81 78 61 53 60 70 77 80
39 50 49 48 28 38 64 52 61 121 99 99 85 74 63 96 70 -35 -25 2 22 46 62 54 87 39 79 110 125 121 82 69 57 41 62 49 48 68 117 107 123 122 116 116 116 109 106 103 86 77 65 67 60 66
15 19 28 25 31 41 58 78 78 105 123 110 81 66 70 62 55 72 73 74 80 60 121 142 119 119 126 145 178 132 86 52 53 76 85 29 -2 -4 18 67 95 119 131 135 111 106 108 102 103 85 64 58 49 53
26 31 32 35 36 53 87 101 108 116 116 108 94 81 74 60 68 65 63 47 71 83 93 108 90 92 92 116 125 111 95 92 90 89 69 45 33 64 70 92 118 143 133 114 104 117 113 115 105 78 48 42 47 47
39 28 35 35 66 69 98 104 148 140 114 91 88 76 96 77 73 83 62 58 72 62 82 67 74 46 49 78 94 91 86 81 79 90 73 62 67 81 108 135 132 128 111 110 118 124 126 115 91 54 32 30 34 36
24 31 42 44 86 120 109 91 104 108 135 126 100 82 100 86 71 48 82 50 41 71 73 54 49 47 71 54 36 49 66 76 82 69 71 58 74 123 152 152 143 113 103 119 130 129 119 99 49 32 15 18 20 19
51 40 56 69 110 158 127 121 102 102 95 104 98 90 76 91 72 72 64 35 39 27 39 64 71 50 49 47 60 66 58 86 99 108 79 75 96 116 132 120 113 116 132 139 137 135 92 45 23 10 8 8 8 8
129 81 92 134 95 140 158 146 97 92 116 93 44 80 78 85 85 42 33 23 61 49 47 24 48 70 66 64 41 41 71 76 91 79 79 114 152 143 108 97 102 114 122 131 126 88 47 20 5 3 7 8 10 8
150 168 197 189 166 166 140 127 123 91 58 53 82 79 99 76 66 59 46 78 34 44 44 39 51 74 62 24 13 36 53 78 96 99 112 122 104 91 98 95 88 103 120 116 76 43 21 7 -0 3 5 5 2 -1
282 303 232 152 145 138 129 122 94 105 107 112 78 83 94 97 73 56 83 88 16 -21 -36 22 34 34 16 20 51 80 98 110 129 120 101 108 123 129 111 96 98 127 90 58 38 22 5 -1 -3 -0 2 -0 1 -0
338 263 217 160 144 111 84 105 117 113 95 72 84 89 118 99 71 42 41 14 -58 -72 -54 -21 25 52 56 54 46 42 60 78 96 106 117 121 120 112 111 110 105 87 58 42 28 16 -5 -8 -4 -2 -0 6 9 5
209 166 135 155 175 140 142 114 79 67 69 53 58 62 71 67 48 45 10 -2 24 25 -2 10 43 54 62 56 57 49 48 45 45 53 52 69 74 63 68 68 56 43 32 21 8 -4 -3 -5 -7 -3 -0 3 8 7
159 138 101 121 175 155 145 150 87 47 60 65 48 35 52 66 40 30 9 15 51 25 5 34 59 47 41 34 36 49 57 60 77 74 65 62 68 85 64 55 42 40 30 15 1 -0 4 2 -2 -0 3 10 12 21
87 101 82 112 133 135 118 88 92 93 54 26 51 83 38 45 15 -32 -12 -9 31 56 69 71 72 74 65 58 53 57 53 70 79 72 75 91 94 81 68 66 62 45 31 10 8 12 18 15 22 22 21 22 22 19
128 136 166 151 131 116 157 137 108 96 84 72 2 37 39 3 -6 -13 6 31 58 52 40 53 68 75 97 117 123 120 117 97 90 101 107 95 84 80 73 67 56 44 29 26 31 35 38 39 32 30 23 25 28 32
124 131 134 86 149 130 96 112 81 25 3 5 -5 -24 -39 -29 1 15 54 74 72 54 45 88 150 166 170 164 151 141 125 121 145 146 132 120 106 82 72 69 62 56 48 51 53 51 50 47 39 37 37 40 45 51